EN

Hourly Weather Novoverbs'ke

Today, 14 May, Friday

Time Temperature Precipitation Wind Pressure Humidity
00:00 +13°C° 0 mm 3 mps 746 mmHg 87%
01:00 +13°C° 0 mm 3 mps 746 mmHg 89%
02:00 +12°C° 0 mm 3 mps 746 mmHg 90%
03:00 +13°C° 0.1 mm 3 mps 745 mmHg 91%
04:00 +13°C° 0.1 mm 3 mps 745 mmHg 91%
05:00 +13°C° 0.1 mm 3 mps 745 mmHg 91%
06:00 +15°C° 0 mm 4 mps 745 mmHg 86%
07:00 +17°C° 0 mm 4 mps 745 mmHg 80%
08:00 +19°C° 0 mm 5 mps 745 mmHg 74%
09:00 +20°C° 0 mm 5 mps 745 mmHg 69%
10:00 +22°C° 0 mm 5 mps 745 mmHg 64%
11:00 +23°C° 0 mm 5 mps 745 mmHg 59%
12:00 +25°C° 0 mm 5 mps 745 mmHg 55%
13:00 +26°C° 0 mm 4 mps 745 mmHg 51%
14:00 +27°C° 0 mm 4 mps 745 mmHg 47%
15:00 +27°C° 0 mm 3 mps 745 mmHg 50%
16:00 +26°C° 0 mm 3 mps 745 mmHg 52%
17:00 +26°C° 0 mm 3 mps 745 mmHg 55%
18:00 +24°C° 0 mm 3 mps 745 mmHg 59%
19:00 +20°C° 0 mm 3 mps 745 mmHg 63%
20:00 +18°C° 0 mm 2 mps 745 mmHg 68%
21:00 +17°C° 0 mm 2 mps 745 mmHg 70%
22:00 +17°C° 0 mm 2 mps 745 mmHg 72%
23:00 +16°C° 0 mm 2 mps 746 mmHg 75%

Tomorrow, 15 May, Saturday

Time Temperature Precipitation Wind Pressure Humidity
00:00 +15°C° 0 mm 2 mps 746 mmHg 77%
01:00 +15°C° 0 mm 2 mps 746 mmHg 79%
02:00 +14°C° 0 mm 2 mps 746 mmHg 81%
03:00 +14°C° 0 mm 2 mps 746 mmHg 81%
04:00 +14°C° 0 mm 2 mps 747 mmHg 82%
05:00 +14°C° 0 mm 2 mps 747 mmHg 82%
06:00 +16°C° 0 mm 2 mps 747 mmHg 74%
07:00 +18°C° 0 mm 2 mps 747 mmHg 66%
08:00 +20°C° 0 mm 2 mps 747 mmHg 58%
09:00 +21°C° 0 mm 3 mps 748 mmHg 54%
10:00 +22°C° 0 mm 3 mps 748 mmHg 50%
11:00 +25°C° 0 mm 3 mps 748 mmHg 45%
12:00 +25°C° 0 mm 3 mps 748 mmHg 44%
13:00 +26°C° 0 mm 3 mps 748 mmHg 43%
14:00 +26°C° 0 mm 3 mps 747 mmHg 42%
15:00 +26°C° 0 mm 3 mps 747 mmHg 45%
16:00 +25°C° 0 mm 2 mps 747 mmHg 47%
17:00 +25°C° 0 mm 2 mps 747 mmHg 50%
18:00 +24°C° 0 mm 2 mps 747 mmHg 53%
19:00 +22°C° 0 mm 1 mps 747 mmHg 56%
20:00 +20°C° 0 mm 1 mps 747 mmHg 59%
21:00 +20°C° 0 mm 1 mps 747 mmHg 61%
22:00 +19°C° 0 mm 1 mps 747 mmHg 62%
23:00 +19°C° 0 mm 1 mps 747 mmHg 63%

Day after tomorrow, 16 May, Sunday

Time Temperature Precipitation Wind Pressure Humidity
00:00 +18°C° 0 mm 1 mps 747 mmHg 65%
01:00 +18°C° 0 mm 1 mps 747 mmHg 66%
02:00 +16°C° 0 mm 1 mps 747 mmHg 68%
03:00 +16°C° 0 mm 2 mps 747 mmHg 70%
04:00 +16°C° 0 mm 2 mps 747 mmHg 72%
05:00 +16°C° 0 mm 2 mps 747 mmHg 74%
06:00 +18°C° 0 mm 3 mps 747 mmHg 69%
07:00 +20°C° 0 mm 3 mps 747 mmHg 64%
08:00 +22°C° 0 mm 4 mps 747 mmHg 59%
09:00 +23°C° 0 mm 4 mps 747 mmHg 57%
10:00 +25°C° 0 mm 4 mps 746 mmHg 55%
11:00 +27°C° 0 mm 4 mps 746 mmHg 52%
12:00 +27°C° 0 mm 5 mps 746 mmHg 51%
13:00 +28°C° 0 mm 5 mps 745 mmHg 49%
14:00 +28°C° 0 mm 5 mps 745 mmHg 47%
15:00 +27°C° 0 mm 4 mps 745 mmHg 53%
16:00 +26°C° 0 mm 4 mps 744 mmHg 59%
17:00 +25°C° 0 mm 4 mps 744 mmHg 66%
18:00 +23°C° 0 mm 4 mps 744 mmHg 70%
19:00 +22°C° 0 mm 4 mps 744 mmHg 73%
20:00 +21°C° 0 mm 4 mps 743 mmHg 77%
21:00 +20°C° 0 mm 4 mps 743 mmHg 77%
22:00 +19°C° 0 mm 3 mps 743 mmHg 76%
23:00 +19°C° 0 mm 3 mps 743 mmHg 76%

17 May, Monday

Time Temperature Precipitation Wind Pressure Humidity
00:00 +18°C° 0 mm 3 mps 742 mmHg 77%
01:00 +17°C° 0 mm 3 mps 742 mmHg 78%
02:00 +17°C° 0 mm 3 mps 742 mmHg 80%
03:00 +17°C° 0 mm 3 mps 742 mmHg 80%
04:00 +17°C° 0 mm 3 mps 742 mmHg 81%
05:00 +17°C° 0 mm 3 mps 741 mmHg 81%
06:00 +18°C° 0 mm 3 mps 741 mmHg 75%
07:00 +19°C° 0 mm 4 mps 741 mmHg 69%
08:00 +21°C° 0 mm 4 mps 741 mmHg 62%
09:00 +22°C° 0 mm 4 mps 741 mmHg 58%
10:00 +25°C° 0 mm 5 mps 741 mmHg 53%
11:00 +26°C° 0 mm 5 mps 741 mmHg 48%
12:00 +27°C° 0 mm 5 mps 741 mmHg 48%
13:00 +28°C° 0 mm 5 mps 741 mmHg 48%
14:00 +28°C° 0 mm 5 mps 741 mmHg 48%
15:00 +28°C° 0 mm 5 mps 741 mmHg 51%
16:00 +27°C° 0 mm 5 mps 741 mmHg 54%
17:00 +27°C° 0 mm 4 mps 741 mmHg 58%
18:00 +25°C° 0 mm 4 mps 742 mmHg 66%
19:00 +22°C° 0 mm 3 mps 742 mmHg 74%
20:00 +20°C° 0 mm 3 mps 742 mmHg 82%
21:00 +20°C° 0.2 mm 3 mps 742 mmHg 86%
22:00 +19°C° 0.2 mm 3 mps 743 mmHg 90%
23:00 +18°C° 0.2 mm 3 mps 743 mmHg 94%

18 May, Tuesday

Time Temperature Precipitation Wind Pressure Humidity
00:00 +18°C° 0 mm 3 mps 743 mmHg 95%
01:00 +17°C° 0 mm 3 mps 743 mmHg 95%
02:00 +17°C° 0 mm 3 mps 743 mmHg 96%
03:00 +17°C° 0 mm 2 mps 743 mmHg 96%
04:00 +17°C° 0 mm 2 mps 744 mmHg 95%
05:00 +17°C° 0 mm 2 mps 744 mmHg 94%
06:00 +18°C° 0.1 mm 2 mps 744 mmHg 86%
07:00 +20°C° 0.1 mm 2 mps 745 mmHg 78%
08:00 +21°C° 0.1 mm 2 mps 745 mmHg 70%
09:00 +24°C° 0.2 mm 3 mps 745 mmHg 65%
10:00 +25°C° 0.2 mm 3 mps 745 mmHg 60%
11:00 +26°C° 0.2 mm 4 mps 745 mmHg 55%
12:00 +26°C° 0.3 mm 4 mps 745 mmHg 52%
13:00 +26°C° 0.3 mm 4 mps 745 mmHg 50%
14:00 +27°C° 0.3 mm 5 mps 745 mmHg 48%
15:00 +26°C° 0 mm 4 mps 745 mmHg 51%
16:00 +25°C° 0 mm 3 mps 745 mmHg 55%
17:00 +25°C° 0 mm 3 mps 745 mmHg 59%
18:00 +22°C° 0 mm 3 mps 745 mmHg 63%
19:00 +21°C° 0 mm 3 mps 745 mmHg 67%
20:00 +20°C° 0 mm 3 mps 745 mmHg 71%
21:00 +19°C° 0 mm 3 mps 746 mmHg 73%
22:00 +19°C° 0 mm 3 mps 746 mmHg 75%
23:00 +19°C° 0 mm 3 mps 746 mmHg 77%

19 May, Wednesday

Time Temperature Precipitation Wind Pressure Humidity
00:00 +18°C° 0 mm 3 mps 746 mmHg 79%
01:00 +18°C° 0 mm 3 mps 746 mmHg 80%
02:00 +17°C° 0 mm 3 mps 746 mmHg 82%
03:00 +17°C° 0 mm 3 mps 746 mmHg 83%
04:00 +16°C° 0 mm 3 mps 746 mmHg 85%
05:00 +16°C° 0 mm 3 mps 746 mmHg 86%
06:00 +18°C° 0 mm 3 mps 746 mmHg 80%
07:00 +20°C° 0 mm 4 mps 746 mmHg 73%
08:00 +21°C° 0 mm 5 mps 746 mmHg 67%
09:00 +23°C° 0 mm 5 mps 746 mmHg 62%
10:00 +25°C° 0 mm 5 mps 746 mmHg 58%
11:00 +26°C° 0 mm 5 mps 745 mmHg 53%
12:00 +26°C° 0 mm 5 mps 745 mmHg 52%
13:00 +27°C° 0 mm 6 mps 745 mmHg 50%
14:00 +27°C° 0 mm 6 mps 745 mmHg 49%
15:00 +26°C° 0 mm 5 mps 745 mmHg 52%
16:00 +25°C° 0 mm 5 mps 745 mmHg 55%
17:00 +25°C° 0 mm 4 mps 744 mmHg 57%
18:00 +22°C° 0 mm 4 mps 744 mmHg 63%
19:00 +20°C° 0 mm 3 mps 744 mmHg 68%
20:00 +18°C° 0 mm 3 mps 744 mmHg 73%
21:00 +17°C° 0 mm 2 mps 744 mmHg 75%
22:00 +17°C° 0 mm 2 mps 744 mmHg 77%
23:00 +16°C° 0 mm 2 mps 744 mmHg 79%
Show more

We Need Your Consent

Meteoprog and our Service Providers may store and access personal data such as cookies, device identifiers or other similar technologies on your device and process such data to personalise content and ads, as well as provide social media features and to analyse the traffic.

  • Store and/or access information on your device

    Cookies, device identifiers or other information can be stored or accessed on your device for the purposes indicated above.

  • Personalised ads and content, ad and content measurement, audience insights, and products development

    Ads and content can be personalised based on a profile. More data can be added to better personalise ads and content. Ad and content performance can be measured. Insights about the audience who saw the ads and content can be derived. Such data can be used to develop or improve user’s experience, systems and software.

By clicking ‘I Agree’ you will allow the use of indicated cookies, device identifiers, web beacons or other similar technologies. Your settings can be changed in the browser on your device.

For certain purposes, legitimate interests may be relied on, rather than consent. You can read more about this in our Privacy and Cookie Policy.